Location: Newark
(40.4667°N, 5.6000°W)
Time: 01:37:08
(UTC+00:00)

Vanguard 3 - Visible Passes

Search period start: 16 November 2019 00:00
Search period end: 26 November 2019 00:00
Orbit: 508 x 3263 km, 33.3° (Epoch: 14 November)

Date Brightness Start Highest point End Pass type
(mag) Time Alt. Az. Time Alt. Az. Time Alt. Az.
16 Nov 9.6 18:22:02 10° W 18:38:46 60° SSW 18:47:13 17° ESE visible
16 Nov 9.6 20:40:12 10° W 20:51:02 31° SW 20:51:48 31° SSW visible
17 Nov 9.9 17:04:23 10° W 17:23:08 66° S 17:35:01 10° ESE visible
17 Nov 9.5 19:22:15 10° W 19:36:54 47° SSW 19:42:14 27° SSE visible
17 Nov 10.4 21:42:02 10° W 21:46:49 15° SW 21:46:49 15° SW visible
18 Nov 9.8 18:04:25 10° W 18:21:55 60° SSW 18:32:34 10° ESE visible
18 Nov 9.8 20:22:51 10° W 20:34:18 30° SW 20:37:19 26° SSW visible
19 Nov 9.9 19:04:40 10° W 19:20:04 45° SSW 19:27:52 17° SSE visible
19 Nov 10.5 21:25:18 10° W 21:30:59 15° SW 21:32:28 14° SW visible
20 Nov 10.0 17:46:48 10° W 18:04:55 59° SSW 18:16:26 10° SE visible
20 Nov 10.1 20:05:29 10° W 20:17:26 29° SW 20:23:07 18° S visible
21 Nov 10.2 18:47:05 10° W 19:03:05 44° SSW 19:13:18 10° SE visible
21 Nov 10.6 21:08:40 10° WSW 21:14:05 14° SW 21:18:27 10° SSW visible
22 Nov 10.3 17:29:14 10° W 17:47:48 57° SSW 18:00:11 10° SE visible
22 Nov 10.4 19:48:07 10° W 20:00:25 27° SW 20:08:55 10° S visible
23 Nov 10.5 18:29:33 10° W 18:45:58 42° SW 18:56:56 10° SSE visible
23 Nov 10.9 20:52:18 10° WSW 20:57:04 12° SW 21:01:10 10° SSW visible
24 Nov 10.5 17:11:44 10° W 17:30:33 55° SSW 17:43:48 10° SE visible
24 Nov 10.7 19:30:49 10° W 19:43:18 25° SW 19:52:17 10° S visible
25 Nov 10.7 18:12:04 10° W 18:28:42 40° SW 18:40:25 10° SSE visible
25 Nov 11.1 20:36:29 10° WSW 20:39:58 11° SW 20:43:07 10° SW visible
